Arctic Village, AK

8:33 PM AKDT on March 22, 2017 (GMT -0800)
Arctic Village

Weather History for PARC - September, 2014

Change the Weather History Date:

Monday, September 22, 2014

  Actual Average Record
Temperature  
Mean Temperature 32 °F -  
Max Temperature 39 °F 40 °F 52 °F (1990)
Min Temperature 24 °F 18 °F -1 °F (1992)
Degree Days  
Heating Degree Days 34    
Moisture  
Dew Point 23 °F    
Average Humidity 69    
Maximum Humidity 93    
Minimum Humidity 49    
Precipitation  
Precipitation 0.00 in - - ()
Sea Level Pressure  
Sea Level Pressure 29.53 in    
Wind  
Wind Speed 5 mph (SW)    
Max Wind Speed 16 mph    
Max Gust Speed 20 mph    
Visibility 10 miles    
Events      
Averages and records for this station are not official NWS values.
T = Trace of Precipitation, MM = Missing Value Source: NWS Daily Summary

Daily Weather History Graph

Daily Weather History Graph

Search for Another Location

Airport or City:

Trip Planner

Search our weather history database for the weather conditions in past years. The results will help you decide how hot, cold, wet, or windy it might be!

Date:

Astronomy

Sep. 22, 2014 Rise Set
Actual Time 7:24 AM AKDT 7:43 PM AKDT
Civil Twilight 6:27 AM AKDT 8:39 PM AKDT
Nautical Twilight 5:16 AM AKDT 9:49 PM AKDT
Astronomical Twilight 3:46 AM AKDT 11:17 PM AKDT
Moon 5:36 AM AKDT (9/22) 7:07 PM AKDT (9/22)
Length of Visible Light 14h 11m
Length of Day
12h 19m
Waning Crescent, 2% of the Moon is Illuminated
Sep 22
Waning Crescent
Sep 23
New
Oct 1
First Quarter
Oct 8
Full
Oct 15
Last Quarter

Hourly Weather History & Observations

Time (AKDT) Temp. Windchill Dew Point Humidity Pressure Visibility Wind Dir Wind Speed Gust Speed Precip Events Conditions
12:16 AM 33.8 °F 28.6 °F 26.6 °F 75% 29.48 in 10.0 mi East 5.8 mph - N/A   Overcast
12:36 AM 33.8 °F 27.7 °F 26.6 °F 75% 29.48 in 10.0 mi ENE 6.9 mph - N/A   Mostly Cloudy
12:56 AM 33.8 °F 28.6 °F 26.6 °F 75% 29.49 in 10.0 mi ENE 5.8 mph - N/A   Partly Cloudy
1:16 AM 32.0 °F 27.5 °F 24.8 °F 75% 29.49 in 10.0 mi NE 4.6 mph - N/A   Clear
1:36 AM 32.0 °F 27.5 °F 23.0 °F 69% 29.49 in 10.0 mi NE 4.6 mph - N/A   Clear
1:56 AM 32.0 °F 27.5 °F 21.2 °F 64% 29.49 in 10.0 mi NE 4.6 mph - N/A   Mostly Cloudy
2:16 AM 30.2 °F 23.4 °F 21.2 °F 69% 29.49 in 10.0 mi NNE 6.9 mph - N/A   Mostly Cloudy
2:36 AM 30.2 °F 24.3 °F 21.2 °F 69% 29.48 in 10.0 mi NNE 5.8 mph - N/A   Clear
2:56 AM 30.2 °F - 21.2 °F 69% 29.48 in 10.0 mi Calm Calm - N/A   Clear
3:16 AM 30.2 °F - 23.0 °F 75% 29.48 in 10.0 mi Calm Calm - N/A   Clear
3:36 AM 30.2 °F - 24.8 °F 80% 29.48 in 10.0 mi Calm Calm - N/A   Clear
3:56 AM 30.2 °F - 23.0 °F 75% 29.48 in 10.0 mi Calm Calm - N/A   Clear
4:16 AM 30.2 °F - 23.0 °F 75% 29.48 in 10.0 mi Calm Calm - N/A   Clear
4:36 AM 28.4 °F - 24.8 °F 86% 29.48 in 10.0 mi Calm Calm - N/A   Partly Cloudy
4:56 AM 30.2 °F - 21.2 °F 69% 29.48 in 10.0 mi Calm Calm - N/A   Clear
5:16 AM 28.4 °F 24.6 °F 24.8 °F 86% 29.48 in 10.0 mi East 3.5 mph - N/A   Clear
5:36 AM 26.6 °F - 24.8 °F 93% 29.49 in 10.0 mi Calm Calm - N/A   Clear
5:56 AM 26.6 °F - 24.8 °F 93% 29.49 in 10.0 mi Calm Calm - N/A   Clear
6:16 AM 26.6 °F - 24.8 °F 93% 29.49 in 10.0 mi Calm Calm - N/A   Clear
6:36 AM 24.8 °F - 21.2 °F 86% 29.49 in 10.0 mi Calm Calm - N/A   Clear
6:56 AM 26.6 °F 22.6 °F 21.2 °F 80% 29.50 in 10.0 mi NW 3.5 mph - N/A   Clear
7:16 AM 24.8 °F 20.5 °F 21.2 °F 86% 29.50 in 10.0 mi NW 3.5 mph - N/A   Clear
7:36 AM 24.8 °F 20.5 °F 21.2 °F 86% 29.50 in 10.0 mi NW 3.5 mph - N/A   Clear
7:56 AM 24.8 °F - 23.0 °F 93% 29.51 in 10.0 mi Calm Calm - N/A   Clear
8:16 AM 24.8 °F - 21.2 °F 86% 29.51 in 10.0 mi Calm Calm - N/A   Clear
8:36 AM 26.6 °F - 21.2 °F 80% 29.51 in 10.0 mi Calm Calm - N/A   Scattered Clouds
8:56 AM 24.8 °F - 21.2 °F 86% 29.51 in 10.0 mi Calm Calm - N/A   Partly Cloudy
9:16 AM 26.6 °F - 21.2 °F 80% 29.51 in 10.0 mi Calm Calm - N/A   Clear
9:36 AM 28.4 °F - 21.2 °F 74% 29.52 in 10.0 mi Calm Calm - N/A   Clear
9:56 AM 30.2 °F - 21.2 °F 69% 29.52 in 10.0 mi Calm Calm - N/A   Clear
10:16 AM 30.2 °F - 21.2 °F 69% 29.52 in 10.0 mi Calm Calm - N/A   Clear
10:36 AM 30.2 °F - 21.2 °F 69% 29.53 in 10.0 mi Calm Calm - N/A   Clear
10:56 AM 32.0 °F 28.7 °F 24.8 °F 75% 29.53 in 10.0 mi SSE 3.5 mph - N/A   Clear
11:16 AM 32.0 °F - 23.0 °F 69% 29.53 in 10.0 mi Calm Calm - N/A   Clear
11:36 AM 33.8 °F - 23.0 °F 65% 29.53 in 10.0 mi Calm Calm - N/A   Clear
11:56 AM 33.8 °F - 24.8 °F 70% 29.53 in 10.0 mi Calm Calm - N/A   Clear
12:16 PM 33.8 °F 29.6 °F 23.0 °F 65% 29.53 in 10.0 mi SW 4.6 mph - N/A   Clear
12:36 PM 33.8 °F 28.6 °F 21.2 °F 60% 29.54 in 10.0 mi SSW 5.8 mph - N/A   Clear
12:56 PM 35.6 °F 31.7 °F 23.0 °F 60% 29.54 in 10.0 mi SW 4.6 mph - N/A   Clear
1:16 PM 35.6 °F - 23.0 °F 60% 29.54 in 10.0 mi Calm Calm - N/A   Clear
1:36 PM 35.6 °F 29.9 °F 23.0 °F 60% 29.54 in 10.0 mi South 6.9 mph - N/A   Clear
1:56 PM 37.4 °F 32.1 °F 24.8 °F 60% 29.54 in 10.0 mi SSW 6.9 mph - N/A   Clear
2:16 PM 37.4 °F 30.8 °F 23.0 °F 56% 29.54 in 10.0 mi SW 9.2 mph - N/A   Clear
2:36 PM 39.2 °F 32.5 °F 23.0 °F 52% 29.54 in 10.0 mi SW 10.4 mph - N/A   Clear
2:56 PM 37.4 °F 30.3 °F 24.8 °F 60% 29.54 in 10.0 mi SW 10.4 mph - N/A   Clear
3:16 PM 39.2 °F 32.0 °F 24.8 °F 56% 29.54 in 10.0 mi WSW 11.5 mph - N/A   Clear
3:36 PM 39.2 °F 32.0 °F 21.2 °F 49% 29.55 in 10.0 mi SW 11.5 mph - N/A   Clear
3:56 PM 39.2 °F 33.6 °F 23.0 °F 52% 29.55 in 10.0 mi SW 8.1 mph - N/A   Clear
4:16 PM 39.2 °F 31.6 °F 23.0 °F 52% 29.55 in 10.0 mi SW 12.7 mph - N/A   Clear
4:36 PM 39.2 °F 31.6 °F 23.0 °F 52% 29.55 in 10.0 mi SW 12.7 mph 16.1 mph N/A   Clear
4:56 PM 39.2 °F 32.0 °F 23.0 °F 52% 29.55 in 10.0 mi SW 11.5 mph - N/A   Clear
5:16 PM 39.2 °F 32.5 °F 23.0 °F 52% 29.56 in 10.0 mi SW 10.4 mph 16.1 mph N/A   Clear
5:36 PM 39.2 °F 30.5 °F 24.8 °F 56% 29.55 in 10.0 mi SW 16.1 mph - N/A   Clear
5:56 PM 39.2 °F 31.6 °F 23.0 °F 52% 29.56 in 10.0 mi SW 12.7 mph - N/A   Clear
6:16 PM 39.2 °F 32.5 °F 24.8 °F 56% 29.56 in 10.0 mi SW 10.4 mph 17.3 mph N/A   Clear
6:56 PM 37.4 °F 28.5 °F 21.2 °F 52% 29.56 in 10.0 mi WSW 15.0 mph 19.6 mph N/A   Clear
7:16 PM 37.4 °F 29.3 °F 23.0 °F 56% 29.56 in 10.0 mi SW 12.7 mph - N/A   Clear
7:36 PM 35.6 °F 27.5 °F 23.0 °F 60% 29.56 in 10.0 mi SW 11.5 mph - N/A   Clear
7:56 PM 35.6 °F 28.0 °F 23.0 °F 60% 29.56 in 10.0 mi SW 10.4 mph - N/A   Clear
8:16 PM 35.6 °F 28.6 °F 23.0 °F 60% 29.56 in 10.0 mi SW 9.2 mph - N/A   Clear
8:36 PM 35.6 °F 29.2 °F 23.0 °F 60% 29.56 in 10.0 mi SW 8.1 mph - N/A   Clear
8:56 PM 35.6 °F 31.7 °F 23.0 °F 60% 29.56 in 10.0 mi South 4.6 mph - N/A   Clear
9:16 PM 33.8 °F - 23.0 °F 65% 29.56 in 10.0 mi Calm Calm - N/A   Clear
9:36 PM 33.8 °F - 24.8 °F 70% 29.56 in 10.0 mi Calm Calm - N/A   Clear
9:56 PM 33.8 °F - 24.8 °F 70% 29.56 in 10.0 mi Calm Calm - N/A   Clear
10:16 PM 33.8 °F 27.7 °F 24.8 °F 70% 29.56 in 10.0 mi SW 6.9 mph - N/A   Clear
10:36 PM 33.8 °F 28.6 °F 24.8 °F 70% 29.56 in 10.0 mi WSW 5.8 mph - N/A   Clear
10:56 PM 33.8 °F 27.7 °F 24.8 °F 70% 29.56 in 10.0 mi West 6.9 mph - N/A   Clear
11:16 PM 33.8 °F 29.6 °F 24.8 °F 70% 29.56 in 10.0 mi West 4.6 mph - N/A   Clear
11:36 PM 33.8 °F 28.6 °F 24.8 °F 70% 29.56 in 10.0 mi WSW 5.8 mph - N/A   Clear
11:56 PM 33.8 °F 26.4 °F 24.8 °F 70% 29.56 in 10.0 mi WSW 9.2 mph - N/A   Clear